Location: Sevilla
(37.3933°N, 5.9839°W)
Time: 12:14:41
(UTC+02:00)

S-56A Canister/Altair - Pass Details

Date: 27 June 2024
Orbit: 638 x 2488 km, 38.9° (Epoch: 14 July)

Event Time Altitude Azimuth Distance (km) Brightness Sun altitude
Rises 22:32:59 0° 256° (WSW) 3,694 11.6 -8.1°
Reaches altitude 10° 22:35:13 10° 257° (WSW) 2,929 11.1 -8.4°
Maximum altitude 22:42:33 90° 349° (NNW) 1,446 8.9 -9.6°
Drops below altitude 10° 22:53:59 10° 79° (E) 4,411 11.0 -11.3°
Sets 22:58:06 0° 80° (E) 5,656 11.6 -11.9°
